BREEZE-M R/B (55842 NORAD) Tracking and Keplerian Element Data

This shows tracking and keplerian element data for the satellite.

Feedback or suggestion? Click here.




ElementValue
Catalog55842
NameBREEZE-M R/B
Epoch Orbit11
Epoch Day84.49975563
Epoch Year2023
RAAN284.397
Inclination0.2605
Eccentricity0.0069158
Argument of Perigee149.0821
Mean Anonmoly287.2565
Mean Motion0.98963683
Decay Rate-1.9E-06
L11 55842U 23031B 23084.49975563 -.00000190 00000+0 00000+0 0 9997
L22 55842 0.2605 284.3970 0069158 149.0821 287.2565 0.98963683 115



Live tracking and technical data element details for BREEZE-M R/B (NORAD 55842). BREEZE-M R/B can be tracked NOW for your location showing map with azimuth and elevation plus other details from your city location.







IsCatalogInMostPopularTable: catalog: 55842, numindb: 6
Update: records affected: 1



GetName: 55842 BREEZE-M R/B

Hit Count: updated at: Tue, 06 Jun 2023 03:02:01 GMT